STARLINK-1214 (45224 NORAD) Tracking and Keplerian Element Data

This shows tracking and keplerian element data for the satellite.

Feedback or suggestion? Click here.




ElementValue
Catalog45224
NameSTARLINK-1214
Epoch Orbit182
Epoch Day87.91667824
Epoch Year2020
RAAN73.9338
Inclination52.9986
Eccentricity0.0006722
Argument of Perigee297.9387
Mean Anonmoly146.9678
Mean Motion15.62683685
Decay Rate0.00338779
L11 45224U 20012AY 20087.91667824 .00338779 00000-0 35611-2 0 9997
L22 45224 52.9986 73.9338 0006722 297.9387 146.9678 15.62683685 1825

Live tracking and technical data element details for STARLINK-1214 (NORAD 45224). STARLINK-1214 can be tracked NOW for your location showing map with azimuth and elevation plus other details from your city location.

Track the satellite on the map from your city or location and see movement details for azimuth, elevation, latitude, longitude, range, height, and movement on the map or in text.







IsCatalogInMostPopularTable: catalog: 45224, numindb: 5
Update: records affected: 1



GetName: 45224 STARLINK-1214

Hit Count: updated at: Tue, 31 Mar 2020 00:45:05 GMT